Flight Track Log - Related Links

Times and Time Zones

All times are in EDT time to prevent confusion due to time zone crossing. See the LXJ262 flight status page for this flight to view local times or setup timezone preferences in your user account.

Time Position Orientation Groundspeed Altitude Reporting Facility
EDT Latitude Longitude Course Direction KTS MPH feet Rate Location/Type
Thu 02:23:59 PM 41.8000 -87.7333 90° East 185 213 1,800  Level Chicago TRACON
Thu 02:24:59 PM 41.8000 -87.6500 90° East 256 295 3,900 1,755 Climbing Chicago TRACON
Thu 02:25:45 PM 41.8125 -87.5806 76° East 253 291 4,900 2,167 Climbing Chicago Center
Thu 02:26:47 PM 41.8042 -87.4778 96° East 269 310 7,800 2,736 Climbing Chicago Center
Thu 02:27:50 PM 41.7933 -87.3758 98° East 278 320 10,600 3,072 Climbing Chicago Center
Thu 02:28:52 PM 41.7806 -87.2453 97° East 293 337 14,200 2,129 Climbing Chicago Center
Thu 02:29:54 PM 41.7683 -87.1322 98° East 306 352 15,000 1,016 Climbing Chicago Center
Thu 02:30:56 PM 41.7617 -87.0197 95° East 305 351 16,300 2,371 Climbing Chicago Center
Thu 02:31:58 PM 41.7636 -86.8989 89° East 322 371 19,900 3,145 Climbing Chicago Center
Thu 02:33:00 PM 41.7642 -86.7706 90° East 342 394 22,800 3,242 Climbing Chicago Center
Thu 02:34:02 PM 41.7656 -86.6239 89° East 360 414 26,600 3,048 Climbing Chicago Center
Thu 02:35:04 PM 41.7664 -86.4794 90° East 387 445 29,100 2,516 Climbing Chicago Center
Thu 02:36:06 PM 41.7694 -86.3267 88° East 408 470 31,800 2,806 Climbing Chicago Center
Thu 02:37:08 PM 41.7997 -86.1386 78° East 430 495 34,900 2,710 Climbing Chicago Center
Thu 02:38:10 PM 41.8269 -85.9797 77° East 436 502 37,400 2,304 Climbing Chicago Center
Thu 02:39:13 PM 41.8542 -85.8189 77° East 440 506 39,700 1,728 Climbing Chicago Center
Thu 02:40:15 PM 41.8814 -85.6533 77° East 449 517 41,000 629 Climbing Chicago Center
Thu 02:41:17 PM 41.9106 -85.4853 77° East 456 525 41,000  Level Chicago Center
Thu 02:42:24 PM 41.9469 -85.2853 76° East 461 531 41,000  Level Cleveland Center
Thu 02:43:24 PM 41.9539 -85.1153 87° East 461 531 41,000  Level Cleveland Center
Thu 02:44:24 PM 41.9528 -84.9783 91° East 461 531 41,000  Level Cleveland Center
Thu 02:45:24 PM 41.9536 -84.7914 90° East 456 525 41,000  Level Cleveland Center
Thu 02:46:24 PM 41.9556 -84.6211 89° East 456 525 41,000  Level Cleveland Center
Thu 02:47:24 PM 41.9614 -84.4483 87° East 461 531 41,000  Level Cleveland Center
Thu 02:48:24 PM 41.9592 -84.2636 91° East 453 521 41,000  Level Cleveland Center
Thu 02:49:24 PM 41.9583 -84.0933 90° East 448 516 41,000  Level Cleveland Center
Thu 02:50:24 PM 41.9608 -83.9369 89° East 448 516 41,000  Level Cleveland Center
Thu 02:51:24 PM 41.9617 -83.7667 90° East 460 529 41,000  Level Cleveland Center
Thu 02:52:24 PM 41.9622 -83.5936 90° East 460 529 41,000  Level Cleveland Center
Thu 02:53:24 PM 41.9644 -83.4233 89° East 460 529 41,000  Level Cleveland Center
Thu 02:54:24 PM 41.9664 -83.2531 89° East 460 529 41,000  Level Cleveland Center
Thu 02:55:24 PM 41.9661 -83.0825 90° East 460 529 41,000  Level Cleveland Center
Thu 02:56:24 PM 41.9675 -82.9150 89° East 460 529 41,000  Level Cleveland Center
Thu 02:57:24 PM 41.9686 -82.7475 89° East 455 524 41,000  Level Cleveland Center
Thu 02:58:24 PM 41.9656 -82.5800 91° East 455 524 41,000  Level Cleveland Center
Thu 02:59:24 PM 41.9661 -82.4122 90° East 455 524 41,000  Level Cleveland Center
Thu 03:00:24 PM 41.9647 -82.2447 91° East 450 518 41,000  Level Cleveland Center
Thu 03:01:24 PM 41.9672 -82.0606 89° East 450 518 41,000  Level Cleveland Center
Thu 03:02:24 PM 41.9669 -81.8928 90° East 445 512 41,000  Level Cleveland Center
Thu 03:03:24 PM 41.9647 -81.7308 91° East 438 504 41,000  Level Cleveland Center
Thu 03:04:24 PM 41.9639 -81.5828 90° East 438 504 41,000  Level Cleveland Center
Thu 03:05:24 PM 41.9611 -81.4153 91° East 444 511 41,000  Level Cleveland Center
Thu 03:06:24 PM 41.9600 -81.2450 90° East 444 511 41,000  Level Cleveland Center
Thu 03:07:24 PM 41.9589 -81.0744 90° East 450 518 41,000  Level Cleveland Center
Thu 03:08:24 PM 41.9553 -80.9069 92° East 444 511 41,000  Level Cleveland Center
Thu 03:09:24 PM 41.9517 -80.7256 91° East 438 504 41,000  Level Cleveland Center
Thu 03:10:24 PM 41.9475 -80.5608 92° East 443 510 41,000  Level Cleveland Center
Thu 03:11:24 PM 41.9453 -80.3961 91° East 438 504 41,000  Level Cleveland Center
Thu 03:12:24 PM 41.9406 -80.2286 92° East 438 504 41,000  Level Cleveland Center
Thu 03:13:24 PM 41.9381 -80.0639 91° East 438 504 41,000  Level Cleveland Center
Thu 03:14:24 PM 41.9350 -79.9022 91° East 438 504 41,000  Level Cleveland Center
Thu 03:15:24 PM 41.9297 -79.7375 92° East 438 504 41,000  Level Cleveland Center
Thu 03:16:24 PM 41.9264 -79.5842 92° East 444 511 41,000  Level Cleveland Center
Thu 03:17:24 PM 41.9228 -79.4167 92° East 444 511 41,000  Level Cleveland Center
Thu 03:18:24 PM 41.9167 -79.2353 93° East 444 511 41,000  Level Cleveland Center
Thu 03:19:24 PM 41.9125 -79.0653 92° East 444 511 41,000  Level Cleveland Center
Thu 03:20:24 PM 41.9061 -78.9092 93° East 444 511 41,000 -400 Level Cleveland Center
Thu 03:21:24 PM 41.9014 -78.7419 92° East 449 517 40,200 -900 Descending Cleveland Center
Thu 03:22:24 PM 41.8944 -78.5775 93° East 449 517 39,200 -1,000 Descending Cleveland Center
Thu 03:23:24 PM 41.8894 -78.4075 92° East 444 511 38,200 -1,010 Descending Cleveland Center
Thu 03:25:46 PM 41.8686 -77.9906 94° East 468 539 35,800 -955 Descending New York Center
Thu 03:26:45 PM 41.8558 -77.8219 96° East 463 533 35,000 -400 Descending New York Center
Thu 03:27:46 PM 41.8131 -77.6617 110° East 457 526 35,000  Level New York Center
Thu 03:28:47 PM 41.7706 -77.4958 109° East 462 532 35,000  Level New York Center
Thu 03:29:47 PM 41.7275 -77.3358 110° East 462 532 35,000 -303 Level New York Center
Thu 03:30:46 PM 41.6842 -77.1733 110° East 462 532 34,400 -1,210 Descending New York Center
Thu 03:31:46 PM 41.6386 -77.0106 110° East 462 532 32,600 -1,785 Descending New York Center
Thu 03:32:47 PM 41.5950 -76.8456 109° East 462 532 30,800 -1,916 Descending New York Center
Thu 03:33:45 PM 41.5511 -76.6836 110° East 462 532 28,800 -1,932 Descending New York Center
Thu 03:34:45 PM 41.5053 -76.5161 110° East 467 537 27,000 -1,636 Descending New York Center
Thu 03:35:46 PM 41.4664 -76.3717 110° East 467 537 25,500 -1,623 Descending New York Center
Thu 03:36:47 PM 41.4200 -76.2017 110° East 467 537 23,700 -1,736 Descending New York Center
Thu 03:37:47 PM 41.3753 -76.0433 111° Southeast 467 537 22,000 -1,678 Descending New York Center
Thu 03:38:45 PM 41.3317 -75.8933 111° Southeast 448 516 20,400 -1,729 Descending New York Center
Thu 03:39:45 PM 41.2881 -75.7436 111° Southeast 442 509 18,600 -1,934 Descending New York Center
Thu 03:40:46 PM 41.2439 -75.6053 113° Southeast 421 484 16,500 -2,132 Descending New York Center
Thu 03:41:46 PM 41.2011 -75.4753 114° Southeast 370 426 14,300 -2,067 Descending New York Center
Thu 03:42:45 PM 41.1603 -75.3542 114° Southeast 356 410 12,400 -1,800 Descending New York Center
Thu 03:43:46 PM 41.1247 -75.2469 114° Southeast 329 379 10,700 -1,587 Descending New York Center
Thu 03:44:46 PM 41.0964 -75.1653 115° Southeast 288 331 9,200 -1,438 Descending New York Center
Thu 03:45:47 PM 41.0683 -75.0781 113° Southeast 268 308 7,800 -1,537 Descending New York Center
Thu 03:46:47 PM 41.0344 -74.9825 115° Southeast 258 297 6,100 -915 Descending New York Center
Thu 03:47:45 PM 41.0081 -74.9039 114° Southeast 264 304 6,000 -712 Descending New York Center
Thu 03:48:45 PM 41.0136 -74.8025 86° East 250 288 4,700 -992 Descending New York Center
Thu 03:49:46 PM 41.0289 -74.7236 76° East 245 282 4,000 -344 Descending New York Center
Thu 03:50:47 PM 41.0439 -74.6472 75° East 220 253 4,000  Level New York Center
Thu 03:51:45 PM 41.0694 -74.5664 67° East 220 253 4,000 -454 Level New York Center
Thu 03:52:46 PM 41.0903 -74.4986 68° East 220 253 3,100 -496 Descending New York Center
Thu 03:53:46 PM 41.1075 -74.4142 75° East 215 247 3,000 -50 Descending New York Center
Thu 03:54:45 PM 41.1200 -74.3461 76° East 210 242 3,000 50 Level New York Center
Thu 03:55:46 PM 41.1000 -74.2667 108° East 219 252 3,100 50 Climbing New York TRACON
Thu 03:56:46 PM 41.0833 -74.2000 108° East 174 200 3,100  Level New York TRACON
Thu 03:57:52 PM 41.0667 -74.1333 108° East 173 199 3,100 -50 Level New York TRACON
Thu 03:58:46 PM 41.0667 -74.0833 90° East 171 197 3,000 -526 Descending New York TRACON
Thu 03:59:46 PM 41.0333 -74.0500 143° Southeast 176 203 2,100 -450 Descending New York TRACON
Thu 04:00:46 PM 40.9833 -74.0500 180° South 168 193 2,100 -200 Level New York TRACON
Thu 04:01:46 PM 40.9333 -74.0500 180° South 166 191 1,700 -600 Descending New York TRACON
Thu 04:02:46 PM 40.8833 -74.0500 180° South 149 171 900 -800 Descending New York TRACON

Login

Don't have an account? Register now (free) for customized features, flight alerts, and more!